SAS575 EFOU-UUDD

Flight info

Callsign SAS575
Flight time 1h 49m
Altitude 35000
Route ABKEM DCT EXIKU DCT VULEZ/K0826F370 L254 BAPOK T73 IDLIT DCT ESOLO
Aircraft A320/M-SDE3FGHIRWY/LB1

Departure

Time 2026-04-23 17:21
Airport Oulu Airport (EFOU)

Arrival

Time 2026-04-23 19:11
Airport Domodedovo International Airport (UUDD)
Time Latitude Longitude Altitude Speed Heading
2026-04-23 16:49 64.92748 25.37686 44 ft 0 kts 31°
2026-04-23 17:14 64.92740 25.37675 44 ft 2 kts 31°
2026-04-23 17:14 64.92726 25.37655 42 ft 2 kts 31°
2026-04-23 17:14 64.92712 25.37635 42 ft 2 kts 32°
2026-04-23 17:14 64.92698 25.37614 43 ft 2 kts 33°
2026-04-23 17:15 64.92684 25.37593 42 ft 2 kts 38°
2026-04-23 17:15 64.92672 25.37565 41 ft 2 kts 91°
2026-04-23 17:15 64.92673 25.37547 40 ft 0 kts 123°
2026-04-23 17:18 64.92666 25.37583 44 ft 3 kts 118°
2026-04-23 17:18 64.92656 25.37625 44 ft 6 kts 120°
2026-04-23 17:18 64.92629 25.37727 42 ft 7 kts 121°
2026-04-23 17:19 64.92607 25.37813 43 ft 6 kts 121°
2026-04-23 17:19 64.92588 25.37886 41 ft 5 kts 122°
2026-04-23 17:19 64.92561 25.37937 43 ft 10 kts 159°
2026-04-23 17:19 64.92495 25.37884 42 ft 11 kts 230°
2026-04-23 17:20 64.92455 25.37677 42 ft 12 kts 260°
2026-04-23 17:20 64.92464 25.37617 43 ft 2 kts 301°
2026-04-23 17:21 64.92919 25.35810 47 ft 124 kts 301°
2026-04-23 17:21 64.93421 25.33788 305 ft 146 kts 298°
2026-04-23 17:21 64.94445 25.29746 1437 ft 153 kts 299°
2026-04-23 17:22 64.95016 25.27500 1826 ft 162 kts 300°
2026-04-23 17:22 64.95929 25.22631 3000 ft 170 kts 271°
2026-04-23 17:23 64.94417 25.18259 4148 ft 189 kts 217°
2026-04-23 17:23 64.93280 25.16675 4732 ft 189 kts 217°
2026-04-23 17:23 64.90964 25.13758 5891 ft 190 kts 201°
2026-04-23 17:24 64.89658 25.13290 6463 ft 190 kts 181°
2026-04-23 17:24 64.88363 25.13787 7002 ft 188 kts 161°
2026-04-23 17:24 64.86120 25.17185 7750 ft 201 kts 139°
2026-04-23 17:25 64.83702 25.21441 8270 ft 236 kts 142°
2026-04-23 17:25 64.82299 25.23803 8473 ft 260 kts 142°
2026-04-23 17:26 64.79090 25.29211 8871 ft 305 kts 142°
2026-04-23 17:26 64.75592 25.35128 9321 ft 312 kts 142°
2026-04-23 17:27 64.72038 25.41153 9956 ft 327 kts 142°
2026-04-23 17:27 64.70139 25.44374 10260 ft 346 kts 142°
2026-04-23 17:27 64.68133 25.47773 10573 ft 364 kts 142°
2026-04-23 17:27 64.65957 25.51018 10879 ft 377 kts 151°
2026-04-23 17:28 64.63614 25.53866 11176 ft 381 kts 152°
2026-04-23 17:28 64.61232 25.56678 11563 ft 384 kts 153°
2026-04-23 17:28 64.58836 25.59463 11981 ft 388 kts 153°
2026-04-23 17:28 64.56434 25.62239 12407 ft 391 kts 153°
2026-04-23 17:29 64.53977 25.65082 12836 ft 395 kts 153°
2026-04-23 17:29 64.51511 25.67943 13346 ft 399 kts 153°
2026-04-23 17:29 64.46486 25.73796 14354 ft 408 kts 153°
2026-04-23 17:30 64.43931 25.76773 14861 ft 413 kts 152°
2026-04-23 17:30 64.38748 25.82789 15889 ft 423 kts 152°
2026-04-23 17:30 64.36094 25.85857 16416 ft 427 kts 152°
2026-04-23 17:31 64.33417 25.88949 16944 ft 432 kts 152°
2026-04-23 17:31 64.30748 25.92023 17495 ft 435 kts 152°
2026-04-23 17:31 64.28012 25.95158 18045 ft 439 kts 152°
2026-04-23 17:31 64.25259 25.98300 18531 ft 442 kts 152°
2026-04-23 17:32 64.22487 26.01457 19014 ft 445 kts 152°
2026-04-23 17:32 64.19702 26.04616 19510 ft 448 kts 152°
2026-04-23 17:32 64.16895 26.07799 20007 ft 450 kts 152°
2026-04-23 17:32 64.14106 26.10963 20514 ft 452 kts 152°
2026-04-23 17:33 64.11272 26.14168 21033 ft 454 kts 152°
2026-04-23 17:33 64.08428 26.17377 21558 ft 456 kts 152°
2026-04-23 17:33 64.05581 26.20583 22098 ft 457 kts 152°
2026-04-23 17:33 64.02762 26.23752 22600 ft 458 kts 152°
2026-04-23 17:34 63.99882 26.26987 22999 ft 463 kts 152°
2026-04-23 17:34 63.96974 26.30248 23403 ft 468 kts 151°
2026-04-23 17:34 63.91062 26.36852 24053 ft 476 kts 151°
2026-04-23 17:35 63.88072 26.40173 24388 ft 480 kts 151°
2026-04-23 17:35 63.82064 26.46808 25065 ft 486 kts 151°
2026-04-23 17:35 63.79009 26.50171 25416 ft 489 kts 151°
2026-04-23 17:36 63.75932 26.53553 25768 ft 492 kts 151°
2026-04-23 17:36 63.72831 26.56956 26121 ft 495 kts 151°
2026-04-23 17:36 63.69724 26.60357 26479 ft 497 kts 151°
2026-04-23 17:36 63.66639 26.63719 26846 ft 499 kts 151°
2026-04-23 17:37 63.63504 26.67125 27209 ft 501 kts 151°
2026-04-23 17:37 63.60346 26.70551 27584 ft 502 kts 151°
2026-04-23 17:37 63.54017 26.77420 28351 ft 505 kts 151°
2026-04-23 17:38 63.50881 26.80808 28736 ft 506 kts 151°
2026-04-23 17:38 63.47688 26.84248 29139 ft 507 kts 151°
2026-04-23 17:38 63.44487 26.87682 29536 ft 508 kts 150°
2026-04-23 17:38 63.41297 26.91089 29926 ft 509 kts 150°
2026-04-23 17:39 63.38101 26.94486 30269 ft 509 kts 151°
2026-04-23 17:39 63.34926 26.97851 30611 ft 509 kts 151°
2026-04-23 17:39 63.31721 27.01253 30960 ft 508 kts 151°
2026-04-23 17:39 63.28558 27.04613 31308 ft 508 kts 151°
2026-04-23 17:40 63.25328 27.08039 31674 ft 507 kts 151°
2026-04-23 17:40 63.22173 27.11379 32029 ft 507 kts 152°
2026-04-23 17:40 63.18986 27.14739 32400 ft 506 kts 152°
2026-04-23 17:40 63.15803 27.18080 32768 ft 504 kts 152°
2026-04-23 17:41 63.12631 27.21391 33141 ft 503 kts 152°
2026-04-23 17:41 63.06357 27.27918 33884 ft 498 kts 152°
2026-04-23 17:41 63.03217 27.31179 34204 ft 495 kts 152°
2026-04-23 17:42 62.97046 27.37583 34737 ft 493 kts 152°
2026-04-23 17:42 62.93886 27.40856 34788 ft 498 kts 152°
2026-04-23 17:43 62.87553 27.47373 34791 ft 511 kts 153°
2026-04-23 17:43 62.81016 27.54048 34793 ft 523 kts 153°
2026-04-23 17:44 62.74345 27.60844 34798 ft 535 kts 153°
2026-04-23 17:44 62.64108 27.71222 34806 ft 550 kts 153°
2026-04-23 17:45 62.53607 27.81746 34805 ft 554 kts 153°
2026-04-23 17:46 62.43138 27.92174 34810 ft 554 kts 153°
2026-04-23 17:46 62.36128 27.99124 34810 ft 553 kts 153°
2026-04-23 17:47 62.29153 28.05984 34819 ft 554 kts 153°
2026-04-23 17:48 62.18616 28.16287 34823 ft 553 kts 153°
2026-04-23 17:48 62.11646 28.23053 34823 ft 553 kts 153°
2026-04-23 17:49 62.04611 28.29856 34821 ft 553 kts 153°
2026-04-23 17:49 61.97630 28.36566 34816 ft 553 kts 153°
2026-04-23 17:50 61.90593 28.43320 34815 ft 553 kts 153°
2026-04-23 17:50 61.80102 28.53321 34819 ft 552 kts 153°
2026-04-23 17:51 61.73068 28.59941 34821 ft 552 kts 153°
2026-04-23 17:52 61.62534 28.69864 34830 ft 552 kts 153°
2026-04-23 17:52 61.52026 28.79676 34832 ft 552 kts 153°
2026-04-23 17:53 61.41505 28.89383 34835 ft 552 kts 153°
2026-04-23 17:54 61.34469 28.95863 34835 ft 552 kts 153°
2026-04-23 17:54 61.25111 29.04408 34836 ft 551 kts 153°
2026-04-23 17:55 61.14525 29.13847 34836 ft 551 kts 155°
2026-04-23 17:56 61.07422 29.19779 34835 ft 550 kts 155°
2026-04-23 17:56 60.96784 29.28595 34837 ft 549 kts 155°
2026-04-23 17:57 60.89725 29.34498 34837 ft 548 kts 155°
2026-04-23 17:58 60.79157 29.43304 34837 ft 547 kts 155°
2026-04-23 17:58 60.72081 29.49147 34837 ft 547 kts 155°
2026-04-23 17:59 60.65002 29.54958 34833 ft 547 kts 155°
2026-04-23 17:59 60.58500 29.62526 34834 ft 531 kts 131°
2026-04-23 18:00 60.53415 29.73214 34829 ft 526 kts 127°
2026-04-23 18:00 60.48400 29.84021 34831 ft 525 kts 127°
2026-04-23 18:01 60.43405 29.94759 34821 ft 526 kts 127°
2026-04-23 18:01 60.38350 30.05514 34829 ft 526 kts 127°
2026-04-23 18:02 60.33302 30.16183 34830 ft 527 kts 127°
2026-04-23 18:02 60.28218 30.26872 34841 ft 527 kts 127°
2026-04-23 18:03 60.23161 30.37460 34841 ft 527 kts 128°
2026-04-23 18:03 60.18215 30.47782 34843 ft 527 kts 128°
2026-04-23 18:04 60.13132 30.58345 34845 ft 527 kts 128°
2026-04-23 18:04 60.08029 30.68909 34849 ft 527 kts 128°
2026-04-23 18:05 60.02905 30.79444 34849 ft 526 kts 128°
2026-04-23 18:05 59.97790 30.89918 34845 ft 525 kts 128°
2026-04-23 18:06 59.92692 31.00314 34842 ft 525 kts 128°
2026-04-23 18:06 59.87598 31.10653 34837 ft 524 kts 128°
2026-04-23 18:07 59.82477 31.20982 34835 ft 523 kts 128°
2026-04-23 18:07 59.77354 31.31262 34831 ft 523 kts 129°
2026-04-23 18:08 59.73091 31.39794 34830 ft 522 kts 129°
2026-04-23 18:08 59.67140 31.51669 34826 ft 522 kts 129°
2026-04-23 18:09 59.62016 31.61833 34826 ft 521 kts 129°
2026-04-23 18:09 59.56874 31.71958 34821 ft 520 kts 129°
2026-04-23 18:10 59.51733 31.82021 34820 ft 520 kts 129°
2026-04-23 18:10 59.46622 31.92018 34817 ft 519 kts 129°
2026-04-23 18:11 59.41498 32.02019 34804 ft 519 kts 129°
2026-04-23 18:11 59.36580 32.12298 34808 ft 515 kts 125°
2026-04-23 18:12 59.31927 32.22949 34814 ft 513 kts 124°
2026-04-23 18:12 59.27310 32.33508 34809 ft 513 kts 125°
2026-04-23 18:13 59.22575 32.43986 34806 ft 513 kts 126°
2026-04-23 18:13 59.17794 32.54349 34806 ft 513 kts 126°
2026-04-23 18:14 59.13023 32.64677 34802 ft 512 kts 126°
2026-04-23 18:14 59.08271 32.75013 34799 ft 511 kts 126°
2026-04-23 18:15 59.03547 32.85237 34796 ft 511 kts 126°
2026-04-23 18:15 58.98785 32.95490 34798 ft 510 kts 127°
2026-04-23 18:16 58.94011 33.05713 34791 ft 510 kts 127°
2026-04-23 18:16 58.89246 33.15872 34792 ft 510 kts 127°
2026-04-23 18:17 58.82096 33.31013 34780 ft 509 kts 127°
2026-04-23 18:17 58.77302 33.41105 34772 ft 509 kts 127°
2026-04-23 18:18 58.72546 33.51099 34766 ft 508 kts 127°
2026-04-23 18:18 58.67752 33.61128 34764 ft 508 kts 128°
2026-04-23 18:19 58.62950 33.71129 34765 ft 507 kts 128°
2026-04-23 18:19 58.58180 33.81013 34755 ft 506 kts 128°
2026-04-23 18:20 58.53371 33.90918 34753 ft 505 kts 128°
2026-04-23 18:20 58.48603 34.00712 34749 ft 505 kts 128°
2026-04-23 18:21 58.43795 34.10529 34748 ft 505 kts 128°
2026-04-23 18:21 58.38987 34.20322 34739 ft 504 kts 129°
2026-04-23 18:22 58.34202 34.30017 34739 ft 504 kts 129°
2026-04-23 18:22 58.29402 34.39724 34736 ft 504 kts 129°
2026-04-23 18:23 58.22174 34.54251 34732 ft 504 kts 129°
2026-04-23 18:24 58.14310 34.67499 34726 ft 506 kts 136°
2026-04-23 18:25 58.06177 34.80300 34718 ft 506 kts 137°
2026-04-23 18:25 58.00750 34.88823 34716 ft 506 kts 137°
2026-04-23 18:26 57.95359 34.97270 34716 ft 506 kts 137°
2026-04-23 18:26 57.89937 35.05747 34715 ft 505 kts 137°
2026-04-23 18:27 57.84538 35.14129 34709 ft 505 kts 137°
2026-04-23 18:27 57.79109 35.22532 34709 ft 504 kts 137°
2026-04-23 18:28 57.73692 35.30878 34701 ft 503 kts 137°
2026-04-23 18:28 57.68296 35.39169 34697 ft 503 kts 137°
2026-04-23 18:29 57.62968 35.47512 34690 ft 500 kts 131°
2026-04-23 18:29 57.58229 35.56982 34689 ft 498 kts 130°
2026-04-23 18:30 57.53505 35.66448 34691 ft 498 kts 130°
2026-04-23 18:30 57.48785 35.75890 34677 ft 497 kts 130°
2026-04-23 18:31 57.44090 35.85235 34676 ft 497 kts 130°
2026-04-23 18:31 57.39363 35.94605 34668 ft 496 kts 130°
2026-04-23 18:32 57.34638 36.03944 34666 ft 495 kts 130°
2026-04-23 18:32 57.29935 36.13189 34656 ft 495 kts 131°
2026-04-23 18:33 57.25202 36.22462 34650 ft 494 kts 131°
2026-04-23 18:33 57.20495 36.31643 34646 ft 493 kts 131°
2026-04-23 18:34 57.15790 36.40779 34616 ft 492 kts 131°
2026-04-23 18:34 57.13425 36.45359 34368 ft 493 kts 131°
2026-04-23 18:34 57.11080 36.49895 33861 ft 483 kts 131°
2026-04-23 18:34 57.08765 36.54362 33320 ft 480 kts 131°
2026-04-23 18:35 57.06466 36.58793 32733 ft 478 kts 131°
2026-04-23 18:35 57.04194 36.63168 32165 ft 477 kts 131°
2026-04-23 18:35 57.01886 36.67608 31615 ft 478 kts 132°
2026-04-23 18:35 56.99625 36.71942 31054 ft 462 kts 132°
2026-04-23 18:36 56.97330 36.75947 30505 ft 449 kts 142°
2026-04-23 18:36 56.94699 36.78966 29992 ft 443 kts 149°
2026-04-23 18:36 56.92029 36.81742 29437 ft 439 kts 149°
2026-04-23 18:36 56.89372 36.84492 28798 ft 437 kts 150°
2026-04-23 18:37 56.86760 36.87189 28182 ft 434 kts 150°
2026-04-23 18:37 56.84132 36.89898 27568 ft 429 kts 150°
2026-04-23 18:37 56.81570 36.92534 26968 ft 415 kts 150°
2026-04-23 18:37 56.79065 36.95104 26611 ft 407 kts 151°
2026-04-23 18:38 56.77438 36.96772 26534 ft 403 kts 151°
2026-04-23 18:38 56.74195 37.00097 26562 ft 402 kts 151°
2026-04-23 18:38 56.71757 37.02595 26561 ft 401 kts 151°
2026-04-23 18:38 56.70138 37.04249 26409 ft 400 kts 151°
2026-04-23 18:39 56.67719 37.06721 26165 ft 397 kts 151°
2026-04-23 18:39 56.65316 37.09174 25689 ft 394 kts 152°
2026-04-23 18:39 56.62927 37.11607 25175 ft 390 kts 152°
2026-04-23 18:39 56.60568 37.14001 24673 ft 387 kts 152°
2026-04-23 18:40 56.58229 37.16366 24181 ft 383 kts 152°
2026-04-23 18:40 56.55935 37.18689 23701 ft 379 kts 152°
2026-04-23 18:40 56.53641 37.21018 23220 ft 376 kts 152°
2026-04-23 18:40 56.51368 37.23325 22664 ft 373 kts 152°
2026-04-23 18:41 56.49108 37.25613 22080 ft 370 kts 152°
2026-04-23 18:41 56.46865 37.27877 21514 ft 368 kts 152°
2026-04-23 18:41 56.44630 37.30123 20954 ft 366 kts 152°
2026-04-23 18:41 56.42412 37.32347 20407 ft 364 kts 152°
2026-04-23 18:42 56.40198 37.34564 19876 ft 362 kts 152°
2026-04-23 18:42 56.38028 37.36737 19357 ft 361 kts 152°
2026-04-23 18:42 56.35831 37.38937 18837 ft 360 kts 152°
2026-04-23 18:42 56.33646 37.41127 18329 ft 359 kts 151°
2026-04-23 18:43 56.31456 37.43316 17826 ft 358 kts 151°
2026-04-23 18:43 56.29271 37.45494 17264 ft 358 kts 151°
2026-04-23 18:43 56.27088 37.47663 16707 ft 358 kts 151°
2026-04-23 18:43 56.24953 37.49784 16491 ft 348 kts 150°
2026-04-23 18:44 56.22859 37.51860 16521 ft 342 kts 150°
2026-04-23 18:44 56.20767 37.53935 16520 ft 341 kts 150°
2026-04-23 18:44 56.18714 37.55974 16521 ft 340 kts 150°
2026-04-23 18:44 56.16640 37.58028 16525 ft 341 kts 150°
2026-04-23 18:45 56.14560 37.60082 16527 ft 340 kts 151°
2026-04-23 18:45 56.12475 37.62119 16515 ft 340 kts 152°
2026-04-23 18:45 56.10349 37.64002 16527 ft 340 kts 155°
2026-04-23 18:45 56.08180 37.65753 16522 ft 340 kts 156°
2026-04-23 18:46 56.06035 37.67414 16526 ft 340 kts 156°
2026-04-23 18:46 56.03855 37.69087 16521 ft 340 kts 156°
2026-04-23 18:46 56.01676 37.70772 16521 ft 341 kts 156°
2026-04-23 18:46 55.99495 37.72475 16527 ft 341 kts 156°
2026-04-23 18:47 55.97327 37.74183 16526 ft 341 kts 155°
2026-04-23 18:47 55.95188 37.75885 16518 ft 341 kts 154°
2026-04-23 18:47 55.93129 37.78015 16517 ft 340 kts 144°
2026-04-23 18:47 55.91201 37.80485 16517 ft 341 kts 144°
2026-04-23 18:48 55.89270 37.82937 16506 ft 341 kts 144°
2026-04-23 18:48 55.87408 37.85570 16504 ft 340 kts 134°
2026-04-23 18:48 55.85930 37.88849 16501 ft 339 kts 121°
2026-04-23 18:48 55.84880 37.92552 16508 ft 339 kts 114°
2026-04-23 18:49 55.83850 37.96324 16447 ft 340 kts 121°
2026-04-23 18:49 55.82331 37.99500 16059 ft 337 kts 141°
2026-04-23 18:49 55.80292 38.01521 15691 ft 335 kts 162°
2026-04-23 18:49 55.77993 38.02180 15420 ft 335 kts 181°
2026-04-23 18:50 55.76459 38.01904 15249 ft 335 kts 188°
2026-04-23 18:50 55.73390 38.01094 14896 ft 335 kts 188°
2026-04-23 18:50 55.71090 38.00479 14634 ft 334 kts 188°
2026-04-23 18:50 55.68814 37.99868 14382 ft 333 kts 188°
2026-04-23 18:51 55.66523 37.99252 14122 ft 333 kts 188°
2026-04-23 18:51 55.64234 37.98645 13871 ft 332 kts 188°
2026-04-23 18:51 55.61949 37.98047 13617 ft 332 kts 188°
2026-04-23 18:51 55.59663 37.97451 13373 ft 331 kts 188°
2026-04-23 18:52 55.57381 37.96854 13102 ft 331 kts 188°
2026-04-23 18:52 55.55143 37.96266 12826 ft 325 kts 188°
2026-04-23 18:52 55.52953 37.95692 12537 ft 312 kts 188°
2026-04-23 18:52 55.50805 37.95461 12261 ft 307 kts 174°
2026-04-23 18:53 55.48723 37.96186 12015 ft 304 kts 159°
2026-04-23 18:53 55.46830 37.97810 11779 ft 302 kts 144°
2026-04-23 18:53 55.45158 37.99962 11541 ft 300 kts 141°
2026-04-23 18:53 55.43478 38.02143 11299 ft 299 kts 141°
2026-04-23 18:54 55.41801 38.04308 11062 ft 299 kts 141°
2026-04-23 18:54 55.40127 38.06467 10829 ft 298 kts 141°
2026-04-23 18:54 55.38453 38.08623 10595 ft 297 kts 141°
2026-04-23 18:54 55.36787 38.10765 10355 ft 295 kts 141°
2026-04-23 18:55 55.35128 38.12901 10131 ft 294 kts 141°
2026-04-23 18:55 55.33475 38.15027 9902 ft 293 kts 141°
2026-04-23 18:55 55.31851 38.17114 9679 ft 292 kts 141°
2026-04-23 18:55 55.30216 38.19214 9450 ft 291 kts 140°
2026-04-23 18:56 55.29129 38.20606 9291 ft 290 kts 141°
2026-04-23 18:56 55.26949 38.23388 8964 ft 289 kts 141°
2026-04-23 18:56 55.25320 38.25456 8716 ft 288 kts 141°
2026-04-23 18:56 55.23691 38.27454 8478 ft 287 kts 142°
2026-04-23 18:57 55.22042 38.29429 8224 ft 287 kts 142°
2026-04-23 18:57 55.20400 38.31386 7984 ft 281 kts 142°
2026-04-23 18:57 55.18825 38.33260 7741 ft 267 kts 142°
2026-04-23 18:57 55.17312 38.35055 7497 ft 263 kts 142°
2026-04-23 18:58 55.15800 38.36852 7268 ft 262 kts 142°
2026-04-23 18:58 55.14294 38.38644 7029 ft 260 kts 142°
2026-04-23 18:58 55.12797 38.40424 6784 ft 259 kts 142°
2026-04-23 18:58 55.11307 38.42187 6565 ft 258 kts 142°
2026-04-23 18:59 55.09827 38.43895 6341 ft 257 kts 142°
2026-04-23 18:59 55.08241 38.45354 6114 ft 261 kts 159°
2026-04-23 18:59 55.06435 38.45799 5874 ft 265 kts 181°
2026-04-23 18:59 55.04653 38.44988 5638 ft 268 kts 208°
2026-04-23 19:00 55.03229 38.42914 5400 ft 267 kts 237°
2026-04-23 19:00 55.02482 38.40063 5150 ft 259 kts 264°
2026-04-23 19:00 55.02487 38.37038 4909 ft 242 kts 290°
2026-04-23 19:00 55.03124 38.34449 4674 ft 224 kts 313°
2026-04-23 19:01 55.04178 38.32588 4438 ft 207 kts 333°
2026-04-23 19:01 55.05334 38.31229 4194 ft 194 kts 334°
2026-04-23 19:01 55.06400 38.29958 4020 ft 181 kts 334°
2026-04-23 19:01 55.07433 38.28727 3976 ft 179 kts 334°
2026-04-23 19:02 55.08129 38.27900 3979 ft 179 kts 334°
2026-04-23 19:02 55.09493 38.26264 3978 ft 180 kts 331°
2026-04-23 19:02 55.10497 38.24949 3989 ft 180 kts 332°
2026-04-23 19:02 55.11523 38.23681 3980 ft 179 kts 333°
2026-04-23 19:03 55.12553 38.22447 3984 ft 179 kts 334°
2026-04-23 19:03 55.13569 38.21240 3979 ft 178 kts 334°
2026-04-23 19:03 55.14598 38.20023 3981 ft 178 kts 334°
2026-04-23 19:03 55.15629 38.18803 3998 ft 177 kts 334°
2026-04-23 19:04 55.16654 38.17589 4004 ft 178 kts 334°
2026-04-23 19:04 55.17678 38.16376 3992 ft 177 kts 334°
2026-04-23 19:04 55.18689 38.15179 3988 ft 177 kts 334°
2026-04-23 19:04 55.19710 38.13968 3988 ft 177 kts 334°
2026-04-23 19:05 55.20735 38.12752 3988 ft 177 kts 334°
2026-04-23 19:05 55.21744 38.11550 3983 ft 168 kts 334°
2026-04-23 19:05 55.22680 38.10435 3982 ft 160 kts 335°
2026-04-23 19:05 55.23587 38.09360 3988 ft 158 kts 335°
2026-04-23 19:06 55.24497 38.08280 3990 ft 157 kts 335°
2026-04-23 19:06 55.25406 38.07199 3967 ft 158 kts 335°
2026-04-23 19:06 55.26308 38.06126 3801 ft 158 kts 334°
2026-04-23 19:06 55.27190 38.05070 3606 ft 145 kts 334°
2026-04-23 19:07 55.27996 38.04106 3418 ft 137 kts 335°
2026-04-23 19:07 55.28773 38.03182 3236 ft 133 kts 335°
2026-04-23 19:07 55.29528 38.02282 3044 ft 130 kts 335°
2026-04-23 19:07 55.30271 38.01397 2871 ft 128 kts 334°
2026-04-23 19:08 55.30998 38.00530 2690 ft 127 kts 334°
2026-04-23 19:08 55.31726 37.99661 2511 ft 126 kts 334°
2026-04-23 19:08 55.32451 37.98795 2333 ft 126 kts 333°
2026-04-23 19:08 55.33183 37.97920 2152 ft 127 kts 332°
2026-04-23 19:09 55.33921 37.97037 1965 ft 128 kts 332°
2026-04-23 19:09 55.34647 37.96168 1797 ft 128 kts 331°
2026-04-23 19:09 55.35381 37.95289 1615 ft 128 kts 331°
2026-04-23 19:09 55.36122 37.94402 1412 ft 131 kts 331°
2026-04-23 19:10 55.36892 37.93480 1222 ft 134 kts 329°
2026-04-23 19:10 55.37670 37.92547 1028 ft 136 kts 329°
2026-04-23 19:10 55.38459 37.91602 837 ft 138 kts 328°
2026-04-23 19:10 55.39256 37.90645 656 ft 139 kts 328°
2026-04-23 19:11 55.40038 37.89712 559 ft 123 kts 327°
2026-04-23 19:11 55.40538 37.89124 570 ft 65 kts 326°
2026-04-23 19:11 55.40808 37.88806 576 ft 35 kts 339°
2026-04-23 19:11 55.41015 37.88751 576 ft 19 kts
2026-04-23 19:12 55.41048 37.88800 577 ft 0 kts 67°
2026-04-23 19:13 55.41049 37.88808 582 ft 4 kts 71°
2026-04-23 19:13 55.41037 37.88866 576 ft 4 kts 141°
2026-04-23 19:13 55.41022 37.88869 577 ft 3 kts 139°
2026-04-23 19:14 55.40994 37.88918 582 ft 6 kts 139°
2026-04-23 19:14 55.40966 37.88957 581 ft 5 kts 141°
2026-04-23 19:14 55.40944 37.88987 576 ft 3 kts 146°
2026-04-23 19:14 55.40913 37.89020 575 ft 9 kts 148°
2026-04-23 19:15 55.40844 37.89099 573 ft 12 kts 146°
2026-04-23 19:15 55.40799 37.89207 574 ft 10 kts 123°
2026-04-23 19:15 55.40789 37.89240 575 ft 0 kts 116°
2026-04-23 19:15 55.40787 37.89244 574 ft 3 kts 115°
2026-04-23 19:16 55.40782 37.89314 571 ft 7 kts 87°
2026-04-23 19:16 55.40809 37.89420 570 ft 11 kts 50°
2026-04-23 19:16 55.40853 37.89532 572 ft 12 kts 44°
2026-04-23 19:17 55.40959 37.89780 573 ft 14 kts 56°
2026-04-23 19:17 55.41018 37.89928 569 ft 15 kts 54°
2026-04-23 19:17 55.41080 37.90088 574 ft 16 kts 56°
2026-04-23 19:17 55.41146 37.90253 568 ft 17 kts 54°
2026-04-23 19:18 55.41179 37.90331 568 ft 4 kts 53°
2026-04-23 19:18 55.41195 37.90369 571 ft 5 kts 53°
2026-04-23 19:18 55.41224 37.90439 568 ft 7 kts 54°
2026-04-23 19:18 55.41254 37.90480 568 ft 4 kts
2026-04-23 19:19 55.41280 37.90469 570 ft 3 kts 345°
2026-04-23 19:19 55.41292 37.90464 569 ft 0 kts 347°
2026-04-23 19:20 55.41302 37.90462 570 ft 0 kts 355°